Location: Street
(51.1247°N, 2.7429°W)
Time: 07:20:45
(UTC+00:00)

SR - Pass Details

Date: 26 November 2020
Orbit: 576 x 880 km, 66.7° (Epoch: 16 January)

Event Time Altitude Azimuth Distance (km) Brightness Sun altitude
Rises 05:45:31 0° 305° (NW) 3,220 - -18.2°
Reaches altitude 10° 05:50:06 10° 269° (W) 2,373 - -17.5°
Maximum altitude 05:51:12 11° 257° (WSW) 2,347 - -17.3°
Drops below altitude 10° 05:52:20 10° 245° (WSW) 2,406 - -17.1°
Exits shadow 05:54:22 - 226° (SW) 2,708 ? -16.8°
Sets 05:57:10 0° 209° (SSW) 3,400 ? -16.4°
